EHI
11 14 15 9 2 0 0 0 0 0 0 0 0 0 0 0 0 0 0 1 3 3 3 3 3 2 2 2 2 1 0 0 0 0 0 0 1 1 1 1 1 2 1 0 1 1 1 0 0
7 8 7 4 1 0 0 0 0 0 0 0 0 0 0 0 0 0 0 1 2 3 2 3 3 2 1 2 2 1 0 0 0 0 0 0 0 0 0 0 1 2 1 0 0 0 0 0 0
4 3 2 1 0 0 0 0 0 0 0 0 0 0 0 0 0 0 0 0 1 2 2 3 3 2 1 1 2 1 0 0 0 0 0 0 0 0 0 0 0 1 1 1 0 0 0 0 0
3 3 2 1 0 0 0 1 1 0 0 0 0 0 0 0 0 0 0 0 1 2 3 3 3 2 1 0 1 1 0 0 0 0 0 0 0 0 0 0 0 0 0 1 1 0 0 0 0
3 3 1 0 0 0 0 1 1 0 0 0 0 0 0 0 0 0 0 0 0 2 3 3 3 2 1 0 0 0 1 1 0 0 0 0 1 1 1 0 0 0 0 1 1 0 0 0 0
2 2 1 0 0 0 0 1 1 0 0 0 0 0 0 0 0 0 0 0 0 2 3 3 2 2 1 0 0 0 1 1 0 0 0 0 1 1 1 0 0 0 0 0 0 0 0 0 0
1 1 0 0 0 0 0 0 0 0 0 0 0 0 0 0 0 0 0 0 0 1 2 1 1 1 0 0 0 0 1 1 0 0 0 0 0 0 0 0 0 0 0 0 0 0 0 0 0
0 0 0 0 0 0 0 0 0 0 0 0 1 1 0 0 0 0 0 0 0 1 1 1 0 0 0 0 0 0 0 0 0 0 0 0 0 0 0 0 0 0 0 0 0 0 0 0 0
0 0 0 0 0 0 0 0 0 0 0 1 2 2 1 0 0 0 0 0 0 0 0 0 0 0 0 0 0 0 0 0 0 0 0 0 0 0 0 0 0 0 0 0 0 0 0 0 0
0 0 0 0 0 0 0 0 0 0 0 1 3 4 2 1 0 0 0 0 0 0 0 0 0 0 0 0 0 0 0 0 0 0 0 0 0 0 0 0 0 0 0 0 0 0 0 0 0
0 0 0 0 0 0 0 0 0 1 1 2 3 4 3 1 1 0 0 0 0 0 0 0 0 0 0 0 0 0 0 0 0 0 0 0 0 0 0 0 0 0 0 0 0 0 0 0 0
0 0 0 0 0 0 0 0 0 1 2 3 3 3 3 2 1 0 0 0 0 0 0 0 1 0 0 0 0 0 0 0 0 0 0 0 0 0 0 0 0 0 0 0 0 0 0 0 0
0 0 0 0 0 0 0 0 0 1 2 3 3 3 2 1 1 0 0 0 0 0 0 0 0 0 0 0 0 0 0 0 0 0 0 0 0 0 0 0 0 0 0 0 0 0 0 0 0
1 0 0 0 0 0 0 0 0 0 1 2 2 2 1 0 0 0 0 0 0 0 0 0 0 0 0 0 0 0 0 0 0 0 0 0 0 0 0 0 0 0 0 0 0 0 0 0 0
2 1 0 0 0 0 0 0 0 0 0 1 1 1 1 1 1 1 1 2 2 0 0 0 0 0 0 0 0 0 0 0 0 0 0 0 0 0 0 0 0 0 0 0 0 0 0 0 0
2 1 0 0 0 0 0 0 0 0 0 0 0 1 2 2 2 2 2 3 3 2 1 1 1 1 1 0 0 0 0 0 0 0 0 0 0 0 0 0 0 0 0 0 0 0 0 0 0
1 0 0 0 0 0 0 0 0 0 0 1 1 2 2 2 2 2 1 2 4 3 2 2 2 2 1 0 0 1 0 0 0 0 0 0 0 0 0 0 0 0 0 0 0 0 0 0 0
0 0 0 0 0 0 0 0 0 1 1 1 2 2 1 1 1 1 0 1 4 5 3 2 2 2 1 0 0 0 0 0 0 0 0 0 0 0 0 0 0 0 0 0 0 0 0 0 0
0 0 0 0 0 0 0 0 1 2 2 2 1 1 0 0 0 1 1 2 4 5 4 2 2 1 1 0 0 0 0 0 0 0 0 0 0 0 0 0 0 0 0 0 0 0 0 0 0
0 0 0 0 0 0 0 0 1 2 2 2 2 1 0 0 1 2 2 2 4 5 4 4 3 1 1 1 0 0 0 0 0 0 0 0 0 0 0 0 0 0 0 0 0 0 0 0 0
0 0 0 0 0 0 0 0 1 1 1 1 2 1 0 0 1 2 2 2 3 5 6 6 5 3 2 2 1 0 0 0 0 0 0 0 0 0 0 0 0 0 0 0 0 0 0 0 0
0 0 0 0 0 0 0 0 0 0 0 1 2 2 1 0 0 1 1 2 3 5 7 8 8 4 3 3 3 1 1 0 0 1 1 0 0 0 0 0 0 0 0 0 0 0 0 0 0
0 0 0 0 0 0 0 0 0 0 0 0 1 2 1 0 0 0 1 2 4 7 9 10 9 5 3 5 5 4 2 1 0 1 1 0 0 0 0 0 0 0 0 0 0 0 0 0 0
0 0 0 0 0 0 0 0 0 0 0 0 1 2 1 1 0 0 0 1 3 7 11 11 10 8 6 6 6 5 3 1 0 1 1 0 0 0 0 0 0 0 0 0 0 0 0 0 0
0 0 0 0 0 0 0 0 0 0 0 0 1 2 2 2 1 0 0 1 3 7 11 13 12 11 8 7 6 5 3 1 0 0 0 0 0 0 0 0 0 0 0 0 0 0 0 0 0
0 0 0 0 0 0 0 0 0 0 0 0 0 1 1 2 2 1 2 3 4 7 11 12 12 11 9 8 7 6 3 1 0 0 0 0 0 0 0 0 0 0 0 0 0 0 0 0 0
0 0 0 0 0 0 0 0 0 0 0 0 0 0 0 1 2 2 3 5 6 8 10 11 9 7 8 7 6 5 3 1 1 1 1 0 0 0 0 0 0 0 0 0 0 0 0 0 0
0 0 0 0 0 0 0 0 0 0 0 0 0 0 0 0 1 1 2 4 5 7 9 8 6 4 5 4 4 3 3 2 2 2 2 1 0 1 2 1 0 0 0 0 0 0 0 0 0
0 0 0 0 0 0 0 0 0 0 0 0 0 0 0 0 0 0 1 1 2 4 6 6 5 4 4 3 2 2 2 3 3 3 3 1 1 1 2 1 1 1 1 0 0 0 0 0 0
0 0 0 0 0 0 0 0 0 0 0 0 0 0 0 0 0 0 0 0 0 1 3 5 5 6 5 2 2 2 2 3 3 3 3 2 2 2 2 1 1 2 2 1 0 0 0 0 0
Wind_Speed
8 9 7 2 3 1 2 3 6 6 6 7 7 8 10 11 8 7 3 5 8 10 10 10 10 10 11 11 11 11 11 11 12 12 12 12 11 11 11 10 10 10 10 9 9 9 9 9 8
8 5 3 3 2 1 3 5 8 8 7 6 7 9 11 11 10 8 3 5 8 10 10 9 10 11 11 11 11 11 12 12 12 12 12 12 12 11 12 11 11 11 10 9 9 9 9 8 8
9 6 3 2 1 2 5 7 8 8 7 6 7 9 8 7 8 6 4 5 9 10 10 10 10 11 11 11 12 12 12 12 12 12 12 12 12 12 12 12 11 11 10 10 9 9 9 8 7
5 3 3 1 3 6 7 7 7 8 6 6 7 8 8 7 6 8 6 7 9 10 10 9 10 11 11 11 12 12 12 12 12 12 12 12 12 12 12 11 11 10 11 10 10 9 8 8 7
3 2 2 1 4 7 7 7 6 6 6 7 9 9 9 9 10 9 6 7 9 10 10 10 10 11 11 11 11 12 12 12 11 11 11 12 12 12 11 11 11 11 11 10 10 9 8 7 7
2 2 1 2 6 6 6 6 6 7 7 7 9 9 7 7 8 7 6 6 9 9 10 9 11 11 11 11 11 11 11 11 11 11 11 11 11 11 10 10 11 11 11 10 9 9 8 7 6
2 2 1 3 5 4 4 5 6 6 6 6 6 8 7 7 6 5 6 7 7 8 9 8 8 9 10 11 10 11 10 10 10 9 9 9 9 10 10 10 10 10 9 9 8 7 7 5 4
2 2 1 2 4 4 5 4 5 6 6 5 5 6 7 7 6 5 6 6 6 6 6 7 8 8 7 7 10 10 9 9 8 8 7 7 7 8 8 9 9 8 8 7 7 5 5 4 2
4 1 1 2 4 5 6 5 6 6 6 6 8 10 10 11 9 7 6 5 5 5 4 5 6 7 7 7 8 7 7 7 7 5 5 4 3 4 5 7 7 7 6 5 4 3 2 1 0
2 0 2 3 4 5 5 4 5 5 5 6 9 12 12 10 9 7 6 7 6 5 4 4 5 6 5 5 5 3 3 3 2 3 3 1 2 3 5 6 6 5 4 3 1 1 2 1 1
1 1 2 5 5 4 4 3 3 4 4 5 8 11 10 9 7 7 6 6 6 5 4 4 4 6 5 3 3 2 1 1 1 2 2 2 3 3 3 2 2 2 1 1 0 1 1 0 1
2 1 3 5 4 3 2 3 4 5 3 6 7 11 10 9 7 6 6 6 6 5 4 4 4 5 5 4 3 2 1 1 1 2 2 2 2 1 2 1 1 1 1 1 1 1 1 2 3
3 3 3 4 3 2 3 3 4 4 5 6 8 10 9 8 7 5 6 7 6 5 4 4 4 4 4 4 2 3 1 2 2 1 2 2 2 1 2 2 2 2 2 2 2 3 4 4 4
3 3 3 3 4 3 3 3 4 4 5 7 8 8 7 6 7 6 6 6 6 6 4 4 4 4 4 4 2 2 2 2 2 2 2 3 2 2 2 3 2 2 2 2 2 3 3 3 3
4 5 5 4 4 4 3 3 5 6 6 7 7 7 7 6 5 6 5 6 6 6 5 5 4 4 4 3 2 2 2 2 2 2 2 3 3 2 2 3 2 2 2 3 3 4 3 3 3
6 5 4 5 5 5 3 2 4 7 7 7 6 7 7 5 5 5 5 5 6 5 5 5 3 4 4 3 3 2 2 3 2 2 2 2 3 3 3 3 2 2 3 3 2 3 3 3 3
7 6 5 5 7 5 5 3 5 6 7 7 7 7 7 7 5 5 4 5 5 5 5 6 4 3 4 4 3 3 3 3 3 2 2 3 3 4 3 2 1 3 3 3 3 3 3 3 3
4 4 5 5 5 5 4 4 5 7 7 7 7 7 7 7 7 6 5 5 5 5 5 6 5 4 4 3 2 2 2 2 3 2 2 3 3 3 3 2 2 3 3 2 2 3 2 1 1
4 4 2 1 3 4 4 5 5 7 7 6 7 7 8 8 8 7 6 5 5 5 5 5 6 5 4 2 2 2 2 1 2 2 2 2 2 3 3 2 2 3 2 1 2 2 2 1 1
5 5 3 2 3 3 4 5 5 6 7 5 5 6 7 8 8 7 6 5 6 5 5 5 5 4 4 3 3 2 2 2 2 1 2 2 2 2 2 2 1 2 1 2 2 2 1 1 2
6 4 3 3 3 5 6 6 6 6 6 5 4 4 6 7 8 8 7 6 5 5 4 5 5 5 5 5 3 2 2 1 2 1 1 1 1 1 1 1 1 1 1 1 1 1 2 1 2
5 2 3 4 6 5 5 4 5 7 7 8 6 5 5 6 7 7 7 7 6 5 4 4 5 4 5 6 4 4 3 2 2 2 1 1 1 1 1 0 1 1 1 1 0 1 1 0 1
4 4 5 7 8 7 7 6 3 7 7 8 7 6 5 6 6 7 7 6 6 6 5 4 4 4 4 5 5 4 3 2 2 2 2 2 1 1 1 1 0 1 1 1 0 1 0 0 0
4 5 6 8 7 8 7 6 2 3 5 7 7 6 6 5 6 6 6 6 5 5 5 4 4 4 4 5 5 4 4 3 3 2 2 2 1 1 2 1 1 1 1 1 1 1 0 1 0
7 5 3 5 6 6 4 4 2 3 4 5 7 6 5 5 5 5 6 6 5 5 5 5 4 4 4 4 5 4 3 3 3 3 3 2 2 1 2 2 2 1 1 1 1 1 1 1 1
6 6 4 4 3 2 3 3 4 6 5 6 6 6 5 5 4 4 4 6 5 6 5 5 4 4 4 4 4 4 4 2 2 2 2 2 2 2 2 2 2 2 2 1 1 1 1 1 1
5 6 6 7 8 6 3 2 4 6 6 6 6 6 5 5 5 4 3 4 5 5 5 5 5 4 4 3 3 4 4 3 2 2 2 2 1 2 3 3 2 2 2 1 1 1 1 1 1
6 6 4 4 4 5 4 4 4 8 6 5 5 5 5 5 4 4 3 2 3 4 4 5 4 4 4 3 3 3 3 3 3 2 2 2 2 2 2 2 2 2 2 2 1 1 1 1 1
6 7 5 4 4 3 3 1 3 7 6 5 4 5 5 4 4 4 3 3 3 3 3 4 4 3 3 3 3 3 3 3 3 3 3 2 2 2 2 2 2 2 2 2 2 2 1 1 1
6 6 6 5 5 4 4 0 4 6 5 4 4 4 4 4 4 4 4 3 3 2 2 3 4 3 3 2 2 2 2 2 2 2 1 1 1 1 2 2 2 2 2 2 3 3 2 2 2
Wind_Direction
259 239 233 241 250 220 83 75 84 75 63 55 52 59 65 53 50 87 128 92 98 102 101 90 80 78 75 74 73 74 76 76 75 74 72 70 70 71 72 75 76 76 74 73 75 75 73 71 71
271 253 250 240 249 108 81 82 80 78 79 77 68 67 73 67 73 96 109 94 99 97 96 90 85 82 77 76 75 76 77 78 77 75 73 71 71 71 71 74 75 73 72 71 73 74 72 69 66
260 256 256 251 322 83 90 81 89 89 80 77 75 61 57 68 81 98 114 111 98 96 96 93 88 85 81 79 77 77 80 79 77 75 74 73 72 71 72 73 73 71 69 69 70 71 71 68 64
252 245 245 248 77 78 93 99 106 104 91 78 84 78 74 56 80 105 120 106 99 100 102 103 96 93 87 82 79 79 81 81 79 78 77 76 75 74 73 72 73 72 70 69 69 72 72 70 64
240 255 242 147 85 78 83 92 99 98 91 80 83 88 85 76 91 108 111 104 103 103 108 110 106 100 93 87 84 85 86 85 84 82 80 80 80 77 75 72 70 69 67 69 69 71 72 69 62
263 251 254 130 100 85 78 81 90 92 91 94 99 96 90 101 102 112 111 102 103 106 109 116 113 107 101 95 90 88 90 89 87 87 83 83 83 82 79 77 74 72 69 67 66 69 71 68 60
277 280 242 122 110 105 99 94 92 93 86 75 87 99 114 115 108 113 109 102 104 109 117 124 124 115 110 103 98 97 95 94 93 90 90 91 90 90 87 81 76 73 71 68 68 67 69 67 57
278 295 276 126 119 109 106 99 90 90 83 69 67 100 126 131 130 119 107 103 105 109 116 124 128 128 122 113 105 105 102 100 99 98 97 99 102 101 96 89 80 75 71 68 68 70 72 70 54
264 276 350 99 110 109 120 116 103 92 94 82 72 85 115 130 134 127 120 114 103 100 106 116 123 124 124 124 119 121 117 117 117 115 114 121 118 108 100 93 92 83 77 71 73 85 89 88 28
214 331 40 62 97 115 122 126 130 125 114 104 97 99 117 132 139 139 140 134 126 123 119 108 110 111 112 112 126 136 129 138 145 142 146 153 93 94 100 103 108 103 92 80 53 250 245 232 183
171 102 70 70 83 96 111 123 116 122 109 115 126 129 134 139 142 138 132 128 128 121 106 113 115 113 110 107 111 98 101 121 111 98 104 91 88 99 105 119 122 129 129 73 341 263 262 171 106
146 77 79 91 87 99 107 98 90 88 94 96 115 137 142 149 147 143 135 121 113 108 105 94 96 110 112 106 111 106 89 89 75 74 85 74 69 76 94 97 106 105 68 26 17 4 45 62 75
147 130 111 108 124 133 111 101 104 106 110 116 126 136 145 149 146 142 130 126 122 116 112 105 96 100 103 95 89 101 93 84 83 38 72 85 76 62 77 72 70 57 52 41 15 33 42 39 42
139 142 151 157 152 144 142 157 149 136 136 136 135 140 149 150 148 144 140 136 130 128 128 113 108 92 95 101 107 98 91 67 72 51 37 66 71 63 71 71 60 55 40 35 37 48 51 43 42
176 181 177 175 183 169 178 197 168 161 152 145 147 146 144 147 151 146 143 139 136 140 135 127 125 112 107 104 91 89 92 91 72 51 35 52 64 65 66 70 64 62 57 41 35 40 42 50 48
204 207 192 177 193 193 209 215 155 160 161 160 159 149 148 153 154 142 139 139 139 139 135 128 127 119 108 101 92 89 82 81 76 57 28 52 62 61 67 61 48 45 53 50 39 41 41 38 38
212 214 190 175 193 198 207 197 166 168 173 171 166 160 157 159 157 144 142 137 137 140 138 129 131 129 117 107 93 79 75 79 79 63 36 35 49 61 69 68 53 55 55 45 39 45 42 37 29
223 219 200 184 182 199 205 207 178 179 181 179 171 169 165 164 161 154 149 142 140 139 139 140 141 130 112 107 106 86 76 83 86 79 56 41 43 56 62 65 61 65 62 48 56 62 43 38 16
288 271 251 176 186 211 216 220 198 178 184 188 180 176 171 167 160 150 147 146 144 143 147 148 148 146 136 129 121 112 107 91 86 99 95 65 53 65 63 51 51 66 67 53 61 83 60 22 13
256 254 249 214 208 241 240 237 206 189 188 188 188 180 170 162 156 151 153 154 158 159 160 149 148 152 145 141 139 142 140 139 127 114 109 102 82 78 76 73 70 74 65 48 46 56 56 355 1
245 258 274 273 264 248 247 241 199 188 170 170 190 183 169 164 160 159 164 159 156 159 161 158 157 155 147 140 134 135 118 106 102 111 108 120 122 116 119 97 104 123 119 113 95 89 75 3 331
260 266 276 270 269 261 248 266 203 175 176 181 185 183 169 162 162 162 161 158 160 159 159 160 153 152 147 146 146 147 142 146 150 146 142 161 164 122 122 124 128 136 108 108 190 103 107 90 318
278 285 270 261 260 265 251 258 210 173 182 177 170 168 167 163 157 157 156 155 159 156 154 155 147 148 146 147 151 156 149 155 153 152 150 174 185 160 173 210 175 131 136 153 100 59 18 192 225
274 266 260 255 255 253 233 238 207 180 168 162 159 160 159 152 145 147 146 145 149 146 147 148 148 147 150 152 154 157 155 157 152 156 159 175 155 170 196 196 179 175 162 172 169 183 247 314 332
230 243 247 223 220 235 200 224 142 108 107 124 135 139 134 126 134 146 150 148 148 148 150 155 152 151 157 157 158 163 165 172 177 171 172 177 172 185 212 199 188 182 175 182 161 188 202 230 224
239 238 258 273 263 263 220 199 117 110 104 104 111 119 121 121 117 126 148 155 155 156 155 154 157 157 162 169 168 167 172 177 181 176 163 186 188 188 197 199 200 187 184 196 166 179 220 229 201
262 250 265 280 287 280 232 141 144 120 119 119 119 120 123 126 126 125 123 147 152 158 159 159 163 162 167 175 179 172 178 180 187 188 176 190 213 202 190 197 192 194 190 197 183 190 221 231 221
259 283 277 254 266 267 241 216 182 153 144 131 126 127 126 131 128 121 120 130 139 144 152 158 166 170 176 176 190 180 183 183 187 192 194 193 213 212 180 195 196 188 185 193 200 195 225 216 222
230 243 255 271 268 276 279 308 87 138 138 133 124 118 122 119 119 118 116 113 104 127 151 158 164 172 176 185 196 188 180 189 194 197 198 196 208 207 192 203 203 194 193 198 197 203 200 222 228
251 252 255 257 268 268 274 304 100 109 100 95 93 93 101 112 118 121 117 118 121 122 140 163 164 168 170 184 190 187 180 190 194 190 185 189 229 230 209 207 205 208 208 203 201 206 204 215 224